Lafayette, CO

7:30 AM MDT on August 29, 2016 (GMT -0600)
Erie Municipal Airport

Weather History for KEIK - November, 2012

Change the Weather History Date:

Wednesday, November 14, 2012

  Actual Average (KBDU) Record (KBDU)
Temperature  
Mean Temperature 37 °F -  
Max Temperature 52 °F - 64 °F (2015)
Min Temperature 22 °F - 5 °F (2014)
Degree Days  
Heating Degree Days 28    
Month to date heating degree days  
Cooling Degree Days 0    
Month to date cooling degree days  
Moisture  
Dew Point 27 °F    
Average Humidity 79    
Maximum Humidity 96    
Minimum Humidity 43    
Precipitation  
Precipitation 0.00 in - 0.00 in (2016)
Sea Level Pressure  
Sea Level Pressure 30.17 in    
Wind  
Wind Speed 1 mph (WNW)    
Max Wind Speed 9 mph    
Max Gust Speed -    
Visibility 10 miles    
Events      
T = Trace of Precipitation, MM = Missing Value Source: NWS Daily Summary

Daily Weather History Graph

Daily Weather History Graph

Search for Another Location

Airport or City:

Trip Planner

Search our weather history database for the weather conditions in past years. The results will help you decide how hot, cold, wet, or windy it might be!

Date:

Astronomy

Nov. 14, 2012 Rise Set
Actual Time 6:44 AM MST 4:44 PM MST
Civil Twilight 6:15 AM MST 5:13 PM MST
Nautical Twilight 5:43 AM MST 5:45 PM MST
Astronomical Twilight 5:11 AM MST 6:17 PM MST
Moon 7:37 AM MST (11/14) 5:35 PM MST (11/14)
Length of Visible Light 10h 57m
Length of Day
9h 59m
New Moon, 1% of the Moon is Illuminated
Nov 14
New Moon
Nov 20
First Quarter
Nov 28
Full
Dec 6
Last Quarter
Dec 13
New

Hourly Weather History & Observations

Time (MST) Temp. Windchill Dew Point Humidity Pressure Visibility Wind Dir Wind Speed Gust Speed Precip Events Conditions
12:15 AM 29.5 °F - 25.0 °F 83% 30.25 in 10.0 mi Calm Calm - N/A   Clear
12:35 AM 26.6 °F - 24.3 °F 91% 30.24 in 10.0 mi Calm Calm - N/A   Clear
12:55 AM 26.4 °F - 23.7 °F 90% 30.24 in 10.0 mi Calm Calm - N/A   Clear
1:15 AM 26.1 °F - 24.4 °F 94% 30.23 in 10.0 mi Calm Calm - N/A   Clear
1:35 AM 24.8 °F - 23.5 °F 95% 30.22 in 10.0 mi Calm Calm - N/A   Clear
1:55 AM 25.2 °F - 23.4 °F 93% 30.22 in 10.0 mi Calm Calm - N/A   Clear
2:15 AM 23.9 °F 19.5 °F 22.8 °F 96% 30.22 in 10.0 mi SSW 3.5 mph - N/A   Clear
2:35 AM 25.2 °F - 23.5 °F 94% 30.22 in 10.0 mi Calm Calm - N/A   Clear
2:55 AM 25.0 °F - 23.0 °F 92% 30.21 in 10.0 mi Calm Calm - N/A   Clear
3:15 AM 24.8 °F - 23.2 °F 94% 30.21 in 10.0 mi Calm Calm - N/A   Clear
3:35 AM 24.6 °F 20.3 °F 22.8 °F 93% 30.20 in 10.0 mi SSW 3.5 mph - N/A   Clear
3:55 AM 23.5 °F - 22.1 °F 94% 30.20 in 10.0 mi Calm Calm - N/A   Clear
4:15 AM 23.7 °F - 22.3 °F 94% 30.19 in 10.0 mi Calm Calm - N/A   Clear
4:35 AM 24.4 °F - 22.6 °F 93% 30.20 in 10.0 mi Calm Calm - N/A   Clear
4:55 AM 24.3 °F - 22.1 °F 91% 30.20 in 10.0 mi Calm Calm - N/A   Clear
5:15 AM 23.5 °F - 21.6 °F 92% 30.20 in 10.0 mi Calm Calm - N/A   Clear
5:35 AM 22.8 °F - 21.0 °F 93% 30.21 in 10.0 mi Calm Calm - N/A   Clear
5:55 AM 23.0 °F - 21.4 °F 94% 30.21 in 10.0 mi Calm Calm - N/A   Clear
6:15 AM 22.6 °F - 21.0 °F 93% 30.20 in 10.0 mi Calm Calm - N/A   Clear
6:35 AM 22.8 °F - 21.7 °F 96% 30.20 in 10.0 mi Calm Calm - N/A   Clear
6:55 AM 22.1 °F - 21.2 °F 96% 30.21 in 10.0 mi Calm Calm - N/A   Clear
7:15 AM 23.0 °F - 21.2 °F 93% 30.21 in 10.0 mi Calm Calm - N/A   Clear
7:35 AM 24.4 °F 18.6 °F 23.0 °F 94% 30.22 in 10.0 mi SSW 4.6 mph - N/A   Clear
7:55 AM 27.0 °F - 25.0 °F 92% 30.23 in 10.0 mi Calm Calm - N/A   Clear
8:15 AM 30.0 °F - 27.0 °F 88% 30.23 in 10.0 mi Calm Calm - N/A   Clear
8:35 AM 32.2 °F - 28.6 °F 87% 30.23 in 10.0 mi Calm Calm - N/A   Clear
8:55 AM 34.7 °F - 27.7 °F 76% 30.23 in 10.0 mi Calm Calm - N/A   Clear
9:15 AM 37.0 °F 34.5 °F 26.6 °F 66% 30.22 in 10.0 mi West 3.5 mph - N/A   Clear
9:35 AM 37.6 °F - 26.8 °F 65% 30.22 in 10.0 mi Calm Calm - N/A   Clear
9:55 AM 38.7 °F - 26.6 °F 62% 30.22 in 10.0 mi Calm Calm - N/A   Clear
10:15 AM 39.7 °F 37.6 °F 27.0 °F 60% 30.21 in 10.0 mi West 3.5 mph - N/A   Clear
10:35 AM 40.8 °F - 26.6 °F 57% 30.19 in 10.0 mi Calm Calm - N/A   Clear
10:55 AM 41.5 °F 39.6 °F 27.0 °F 56% 30.18 in 10.0 mi NNE 3.5 mph - N/A   Clear
11:15 AM 42.3 °F - 27.5 °F 56% 30.16 in 10.0 mi Calm Calm - N/A   Clear
11:35 AM 43.3 °F - 28.2 °F 55% 30.16 in 10.0 mi Calm Calm - N/A   Clear
11:55 AM 44.6 °F - 27.9 °F 52% 30.15 in 10.0 mi Calm Calm - N/A   Clear
12:15 PM 45.1 °F - 27.5 °F 50% 30.14 in 10.0 mi Calm Calm - N/A   Clear
12:35 PM 46.4 °F - 28.0 °F 49% 30.12 in 10.0 mi Calm Calm - N/A   Clear
12:55 PM 47.3 °F - 27.1 °F 46% 30.12 in 10.0 mi Calm Calm - N/A   Clear
1:15 PM 47.5 °F - 26.1 °F 43% 30.11 in 10.0 mi Calm Calm - N/A   Clear
1:35 PM 48.9 °F - 27.3 °F 43% 30.11 in 10.0 mi NNW 3.5 mph - N/A   Clear
1:55 PM 50.5 °F - 28.8 °F 43% 30.10 in 10.0 mi East 3.5 mph - N/A   Clear
2:15 PM 51.6 °F - 30.0 °F 44% 30.09 in 10.0 mi North 3.5 mph - N/A   Clear
2:35 PM 51.4 °F - 31.3 °F 46% 30.09 in 10.0 mi Calm Calm - N/A   Clear
2:55 PM 52.2 °F - 32.0 °F 46% 30.08 in 10.0 mi NNW 3.5 mph - N/A   Clear
3:15 PM 52.5 °F - 30.7 °F 43% 30.08 in 10.0 mi NW 3.5 mph - N/A   Clear
3:35 PM 50.5 °F - 32.0 °F 49% 30.09 in 10.0 mi North 5.8 mph - N/A   Clear
3:55 PM 45.7 °F 41.5 °F 32.5 °F 60% 30.09 in 10.0 mi North 8.1 mph - N/A   Clear
4:15 PM 43.7 °F 38.6 °F 32.0 °F 63% 30.10 in 10.0 mi North 9.2 mph - N/A   Clear
4:35 PM 41.4 °F 38.4 °F 31.6 °F 68% 30.10 in 10.0 mi North 4.6 mph - N/A   Clear
4:55 PM 39.4 °F 36.1 °F 31.1 °F 72% 30.11 in 10.0 mi NNW 4.6 mph - N/A   Clear
5:15 PM 37.0 °F 34.5 °F 31.5 °F 80% 30.11 in 10.0 mi NNW 3.5 mph - N/A   Clear
5:35 PM 37.4 °F 34.9 °F 32.0 °F 81% 30.12 in 10.0 mi WSW 3.5 mph - N/A   Clear
5:55 PM 35.6 °F - 32.0 °F 87% 30.12 in 10.0 mi Calm Calm - N/A   Clear
6:15 PM 33.3 °F - 30.9 °F 91% 30.13 in 10.0 mi Calm Calm - N/A   Clear
6:35 PM 32.4 °F - 30.7 °F 94% 30.14 in 10.0 mi Calm Calm - N/A   Clear
6:55 PM 32.9 °F 26.7 °F 31.6 °F 95% 30.13 in 10.0 mi SW 6.9 mph - N/A   Clear
7:15 PM 33.3 °F - 31.5 °F 93% 30.14 in 10.0 mi Calm Calm - N/A   Clear
7:35 PM 32.0 °F 28.7 °F 30.6 °F 94% 30.14 in 10.0 mi SW 3.5 mph - N/A   Clear
7:55 PM 32.0 °F 28.7 °F 30.7 °F 95% 30.13 in 7.0 mi South 3.5 mph - N/A   Clear
8:15 PM 31.1 °F - 29.8 °F 95% 30.15 in 7.0 mi Calm Calm - N/A   Clear
8:35 PM 31.1 °F - 29.1 °F 92% 30.15 in 10.0 mi Calm Calm - N/A   Clear
8:55 PM 32.0 °F - 30.4 °F 94% 30.16 in 10.0 mi Calm Calm - N/A   Clear
9:15 PM 30.6 °F 27.1 °F 29.3 °F 95% 30.16 in 7.0 mi SW 3.5 mph - N/A   Clear
9:35 PM 30.2 °F 26.7 °F 28.8 °F 94% 30.15 in 7.0 mi SSW 3.5 mph - N/A   Clear
9:55 PM 30.6 °F - 28.9 °F 94% 30.16 in 10.0 mi Calm Calm - N/A   Clear
10:15 PM 29.1 °F - 27.9 °F 95% 30.16 in 7.0 mi Calm Calm - N/A   Clear
10:35 PM 29.3 °F - 28.0 °F 95% 30.17 in 10.0 mi Calm Calm - N/A   Clear
10:55 PM 28.4 °F 23.3 °F 26.4 °F 92% 30.19 in 7.0 mi NNE 4.6 mph - N/A   Clear
11:15 PM 28.4 °F - 27.5 °F 96% 30.20 in 7.0 mi Calm Calm - N/A   Clear
11:35 PM 28.8 °F 25.0 °F 27.7 °F 96% 30.20 in 7.0 mi SSW 3.5 mph - N/A   Clear
11:55 PM 29.5 °F 24.5 °F 28.2 °F 95% 30.20 in 10.0 mi SSW 4.6 mph - N/A   Scattered Clouds